Simultaneous Nadir Overpasses (SNOs) Predictions

Prediction of SNOs between GOES-15 and LANDSAT-8 Satellite Orbit:

Table of predicted SNOs for the next 14.0 days since TLE Epoch: 10/26/2024
Index Date Time (GOES-15) GOES-15 Lat,Lon LANDSAT-8 Lat,Lon Distance(km) Time Diff (sec)
1 10/26/2024 06:14:54 -0.27, 61.30 0.19, 59.05 255.27 80
2 10/28/2024 06:05:20 -0.27, 61.31 -0.40, 62.02 80.03 80
3 10/30/2024 05:53:07 -0.27, 61.33 -1.02, 64.99 415.31 80
4 10/30/2024 18:14:29 0.26, 61.45 -0.11, 59.81 187.20 80
5 11/01/2024 17:59:35 0.26, 61.48 0.56, 62.77 147.50 80
6 11/02/2024 06:20:50 -0.26, 61.39 0.52, 57.62 428.01 80
7 11/03/2024 17:47:19 0.26, 61.52 1.14, 65.76 481.80 80
8 11/04/2024 06:08:34 -0.25, 61.42 -0.07, 60.60 93.56 80
9 11/06/2024 05:58:58 -0.25, 61.46 -0.70, 63.58 240.37 80
10 11/06/2024 18:20:20 0.24, 61.57 -0.45, 58.40 360.47 80
11 11/08/2024 18:08:03 0.23, 61.62 0.16, 61.39 27.07 80
